Year,Month,Day,Hour,Minute,Value (Times are PST for temperature in C)
2010,06,22,08,06,13.30
2010,06,22,08,07,13.30
2010,06,22,08,08,13.30
2010,06,22,08,09,13.40
2010,06,22,08,10,13.40
2010,06,22,08,11,13.50
2010,06,22,08,12,13.50
2010,06,22,08,13,13.50
2010,06,22,08,14,13.50
2010,06,22,08,15,13.50
2010,06,22,08,16,13.60
2010,06,22,08,17,13.60
2010,06,22,08,18,13.60
2010,06,22,08,19,13.60
2010,06,22,08,20,13.60
2010,06,22,08,21,13.60
2010,06,22,08,22,13.60
2010,06,22,08,23,13.70
2010,06,22,08,24,13.70
2010,06,22,08,25,13.70
2010,06,22,08,26,13.80
2010,06,22,08,27,13.80
2010,06,22,08,28,13.90
2010,06,22,08,29,13.90
2010,06,22,08,30,14.00
2010,06,22,08,31,14.10
2010,06,22,08,32,14.10
2010,06,22,08,33,14.20
2010,06,22,08,34,14.20
2010,06,22,08,35,14.20
2010,06,22,08,36,14.30
2010,06,22,08,37,14.30
2010,06,22,08,38,14.30
2010,06,22,08,39,14.40
2010,06,22,08,40,14.50
2010,06,22,08,41,14.50
2010,06,22,08,42,14.60
2010,06,22,08,43,14.60
2010,06,22,08,44,14.60
2010,06,22,08,45,14.70
2010,06,22,08,46,14.60
2010,06,22,08,47,14.60
2010,06,22,08,48,14.70
2010,06,22,08,49,14.60
2010,06,22,08,50,14.60
2010,06,22,08,51,14.60
2010,06,22,08,52,14.60
2010,06,22,08,53,14.60
2010,06,22,08,54,14.70
2010,06,22,08,55,14.70
2010,06,22,08,56,14.70
2010,06,22,08,57,14.70
2010,06,22,08,58,14.60
2010,06,22,08,59,14.60
2010,06,22,09,00,14.60
2010,06,22,09,01,14.60
2010,06,22,09,02,14.60
2010,06,22,09,03,14.60
2010,06,22,09,04,14.50
2010,06,22,09,05,14.50
2010,06,22,09,06,14.50
2010,06,22,09,07,14.50
2010,06,22,09,08,14.50
2010,06,22,09,09,14.50
2010,06,22,09,10,14.50
2010,06,22,09,11,14.50
2010,06,22,09,12,14.50
2010,06,22,09,13,14.50
2010,06,22,09,14,14.60
2010,06,22,09,15,14.60
2010,06,22,09,16,14.60
2010,06,22,09,17,14.60
2010,06,22,09,18,14.70
2010,06,22,09,19,14.70
2010,06,22,09,20,14.70
2010,06,22,09,21,14.70
2010,06,22,09,22,14.70
2010,06,22,09,23,14.70
2010,06,22,09,24,14.70
2010,06,22,09,25,14.70
2010,06,22,09,26,14.70
2010,06,22,09,27,14.70
2010,06,22,09,28,14.80
2010,06,22,09,29,14.80
2010,06,22,09,30,14.80
2010,06,22,09,31,14.80
2010,06,22,09,32,14.80
2010,06,22,09,33,14.80
2010,06,22,09,34,14.80
2010,06,22,09,35,14.80
2010,06,22,09,36,14.80
2010,06,22,09,37,14.90
2010,06,22,09,38,14.90
2010,06,22,09,39,14.90
2010,06,22,09,40,15.00
2010,06,22,09,41,15.10
2010,06,22,09,42,15.10
2010,06,22,09,43,15.20
2010,06,22,09,44,15.20
2010,06,22,09,45,15.20
2010,06,22,09,46,15.30
2010,06,22,09,47,15.30
2010,06,22,09,48,15.30
2010,06,22,09,49,15.30
2010,06,22,09,50,15.40
2010,06,22,09,51,15.40
2010,06,22,09,52,15.50
2010,06,22,09,53,15.50
2010,06,22,09,54,15.60
2010,06,22,09,55,15.60
2010,06,22,09,56,15.60
2010,06,22,09,57,15.60
2010,06,22,09,58,15.50
2010,06,22,09,59,15.50
2010,06,22,10,00,15.50
2010,06,22,10,01,15.40
2010,06,22,10,02,15.50
2010,06,22,10,03,15.50
2010,06,22,10,04,15.50
2010,06,22,10,05,15.60
2010,06,22,10,06,15.60
2010,06,22,10,07,15.60
2010,06,22,10,08,15.70
2010,06,22,10,09,15.70
2010,06,22,10,10,15.80
2010,06,22,10,11,15.80
2010,06,22,10,12,15.90
2010,06,22,10,13,15.90
2010,06,22,10,14,15.90
2010,06,22,10,15,15.90
2010,06,22,10,16,15.90
2010,06,22,10,17,15.90
2010,06,22,10,18,15.90
2010,06,22,10,19,16.00
2010,06,22,10,20,16.00
2010,06,22,10,21,16.10
2010,06,22,10,22,16.10
2010,06,22,10,23,16.00
2010,06,22,10,24,16.00
2010,06,22,10,25,16.00
2010,06,22,10,26,15.90
2010,06,22,10,27,15.90
2010,06,22,10,28,16.00
2010,06,22,10,29,16.00
2010,06,22,10,30,16.00
2010,06,22,10,31,16.00
2010,06,22,10,32,16.10
2010,06,22,10,33,16.10
2010,06,22,10,34,16.10
2010,06,22,10,35,16.20
2010,06,22,10,36,16.20
2010,06,22,10,37,16.20
2010,06,22,10,38,16.30
2010,06,22,10,39,16.30
2010,06,22,10,40,16.30
2010,06,22,10,41,16.40
2010,06,22,10,42,16.40
2010,06,22,10,43,16.40
2010,06,22,10,44,16.40
2010,06,22,10,45,16.40
2010,06,22,10,46,16.50
2010,06,22,10,47,16.40
2010,06,22,10,48,16.40
2010,06,22,10,49,16.40
2010,06,22,10,50,16.40
2010,06,22,10,51,16.40
2010,06,22,10,52,16.40
2010,06,22,10,53,16.40
2010,06,22,10,54,16.40
2010,06,22,10,55,16.40
2010,06,22,10,56,16.50
2010,06,22,10,57,16.50
2010,06,22,10,58,16.50
2010,06,22,10,59,16.60
2010,06,22,11,00,16.60
2010,06,22,11,01,16.70
2010,06,22,11,02,16.70
2010,06,22,11,03,16.70
2010,06,22,11,04,16.70
2010,06,22,11,05,16.70
2010,06,22,11,06,16.70
2010,06,22,11,07,16.70
2010,06,22,11,08,16.80
2010,06,22,11,09,16.80
2010,06,22,11,10,16.80
2010,06,22,11,11,16.90
2010,06,22,11,12,16.90
2010,06,22,11,13,16.90
2010,06,22,11,14,16.90
2010,06,22,11,15,17.00
2010,06,22,11,16,17.00
2010,06,22,11,17,17.10
2010,06,22,11,18,17.10
2010,06,22,11,19,17.10
2010,06,22,11,20,17.20
2010,06,22,11,21,17.20
2010,06,22,11,22,17.20
2010,06,22,11,23,17.20
2010,06,22,11,24,17.20
2010,06,22,11,25,17.30
2010,06,22,11,26,17.30
2010,06,22,11,27,17.30
2010,06,22,11,28,17.30
2010,06,22,11,29,17.40
2010,06,22,11,30,17.40
2010,06,22,11,31,17.40
2010,06,22,11,32,17.40
2010,06,22,11,33,17.30
2010,06,22,11,34,17.30
2010,06,22,11,35,17.30
2010,06,22,11,36,17.30
2010,06,22,11,37,17.30
2010,06,22,11,38,17.30
2010,06,22,11,39,17.30
2010,06,22,11,40,17.40
2010,06,22,11,41,17.40
2010,06,22,11,42,17.40
2010,06,22,11,43,17.50
2010,06,22,11,44,17.50
2010,06,22,11,45,17.50
2010,06,22,11,46,17.60
2010,06,22,11,47,17.60
2010,06,22,11,48,17.60
2010,06,22,11,49,17.70
2010,06,22,11,50,17.70
2010,06,22,11,51,17.70
2010,06,22,11,52,17.70
2010,06,22,11,53,17.70
2010,06,22,11,54,17.70
2010,06,22,11,55,17.70
2010,06,22,11,56,17.70
2010,06,22,11,57,17.70
2010,06,22,11,58,17.70
2010,06,22,11,59,17.70
2010,06,22,12,00,17.70
2010,06,22,12,01,17.70
2010,06,22,12,02,17.70
2010,06,22,12,03,17.70
2010,06,22,12,04,17.70
2010,06,22,12,05,17.80
2010,06,22,12,06,17.80
2010,06,22,12,07,17.80
2010,06,22,12,08,17.80
2010,06,22,12,09,17.80
2010,06,22,12,10,17.80
2010,06,22,12,11,17.90
2010,06,22,12,12,17.90
2010,06,22,12,13,17.90
2010,06,22,12,14,17.90
2010,06,22,12,15,18.00
2010,06,22,12,16,18.00
2010,06,22,12,17,18.10
2010,06,22,12,18,18.10
2010,06,22,12,19,18.10
2010,06,22,12,20,18.20
2010,06,22,12,21,18.20
2010,06,22,12,22,18.20
2010,06,22,12,23,18.20
2010,06,22,12,24,18.20
2010,06,22,12,25,18.20
2010,06,22,12,26,18.10
2010,06,22,12,27,18.20
2010,06,22,12,28,18.20
2010,06,22,12,29,18.20
2010,06,22,12,30,18.30
2010,06,22,12,31,18.30
2010,06,22,12,32,18.30
2010,06,22,12,33,18.30
2010,06,22,12,34,18.30
2010,06,22,12,35,18.30
2010,06,22,12,36,18.30
2010,06,22,12,37,18.30
2010,06,22,12,38,18.30
2010,06,22,12,39,18.30
2010,06,22,12,40,18.30
2010,06,22,12,41,18.30
2010,06,22,12,42,18.30
2010,06,22,12,43,18.30
2010,06,22,12,44,18.30
2010,06,22,12,45,18.40
2010,06,22,12,46,18.40
2010,06,22,12,47,18.40
2010,06,22,12,48,18.40
2010,06,22,12,49,18.40
2010,06,22,12,50,18.40
2010,06,22,12,51,18.40
2010,06,22,12,52,18.40
2010,06,22,12,53,18.30
2010,06,22,12,54,18.30
2010,06,22,12,55,18.30
2010,06,22,12,56,18.30
2010,06,22,12,57,18.30
2010,06,22,12,58,18.40
2010,06,22,12,59,18.40
2010,06,22,13,00,18.40
2010,06,22,13,01,18.40
2010,06,22,13,02,18.40
2010,06,22,13,03,18.40
2010,06,22,13,04,18.40
2010,06,22,13,05,18.40
2010,06,22,13,06,18.40
2010,06,22,13,07,18.40
2010,06,22,13,08,18.50
2010,06,22,13,09,18.50
2010,06,22,13,10,18.50
2010,06,22,13,11,18.60
2010,06,22,13,12,18.70
2010,06,22,13,13,18.70
2010,06,22,13,14,18.80
2010,06,22,13,15,18.80
2010,06,22,13,16,18.90
2010,06,22,13,17,18.90
2010,06,22,13,18,18.90
2010,06,22,13,19,18.80
2010,06,22,13,20,18.80
2010,06,22,13,21,18.80
2010,06,22,13,22,18.80
2010,06,22,13,23,18.80
2010,06,22,13,24,18.70
2010,06,22,13,25,18.70
2010,06,22,13,26,18.80
2010,06,22,13,27,18.80
2010,06,22,13,28,18.80
2010,06,22,13,29,18.80
2010,06,22,13,30,18.80
2010,06,22,13,31,18.80
2010,06,22,13,32,18.80
2010,06,22,13,33,18.80
2010,06,22,13,34,18.80
2010,06,22,13,35,18.90
2010,06,22,13,36,18.90
2010,06,22,13,37,18.90
2010,06,22,13,38,18.80
2010,06,22,13,39,18.90
2010,06,22,13,40,18.90
2010,06,22,13,41,18.90
2010,06,22,13,42,18.90
2010,06,22,13,43,18.90
2010,06,22,13,44,18.90
2010,06,22,13,45,18.90
2010,06,22,13,46,18.90
2010,06,22,13,47,19.00
2010,06,22,13,48,19.00
2010,06,22,13,49,19.00
2010,06,22,13,50,19.00
2010,06,22,13,51,19.10
2010,06,22,13,52,19.10
2010,06,22,13,53,19.10
2010,06,22,13,54,19.10
2010,06,22,13,55,19.20
2010,06,22,13,56,19.20
2010,06,22,13,57,19.20
2010,06,22,13,58,19.30
2010,06,22,13,59,19.30
2010,06,22,14,00,19.30
2010,06,22,14,01,19.30
2010,06,22,14,02,19.30
2010,06,22,14,03,19.40
2010,06,22,14,04,19.50
2010,06,22,14,05,19.50
2010,06,22,14,06,19.50
2010,06,22,14,07,19.60
2010,06,22,14,08,19.60
2010,06,22,14,09,19.60
2010,06,22,14,10,19.60
2010,06,22,14,11,19.50
2010,06,22,14,12,19.50
2010,06,22,14,13,19.50
2010,06,22,14,14,19.50
2010,06,22,14,15,19.50
2010,06,22,14,16,19.60
2010,06,22,14,17,19.60
2010,06,22,14,18,19.60
2010,06,22,14,19,19.60
2010,06,22,14,20,19.60
2010,06,22,14,21,19.60
2010,06,22,14,22,19.60
2010,06,22,14,23,19.70
2010,06,22,14,24,19.70
2010,06,22,14,25,19.70
2010,06,22,14,26,19.70
2010,06,22,14,27,19.80
2010,06,22,14,28,19.80
2010,06,22,14,29,19.90
2010,06,22,14,30,19.90
2010,06,22,14,31,19.90
2010,06,22,14,32,19.90
2010,06,22,14,33,20.00
2010,06,22,14,34,20.00
2010,06,22,14,35,20.10
2010,06,22,14,36,20.10
2010,06,22,14,37,20.20
2010,06,22,14,38,20.20
2010,06,22,14,39,20.30
2010,06,22,14,40,20.30
2010,06,22,14,41,20.30
2010,06,22,14,42,20.40
2010,06,22,14,43,20.40
2010,06,22,14,44,20.40
2010,06,22,14,45,20.40
2010,06,22,14,46,20.40
2010,06,22,14,47,20.50
2010,06,22,14,48,20.50
2010,06,22,14,49,20.50
2010,06,22,14,50,20.60
2010,06,22,14,51,20.60
2010,06,22,14,52,20.70
2010,06,22,14,53,20.70
2010,06,22,14,54,20.70
2010,06,22,14,55,20.70
2010,06,22,14,56,20.70
2010,06,22,14,57,20.70
2010,06,22,14,58,20.70
2010,06,22,14,59,20.70
2010,06,22,15,00,20.80
2010,06,22,15,01,20.80
2010,06,22,15,02,20.80
2010,06,22,15,03,20.80
2010,06,22,15,04,20.80
2010,06,22,15,05,20.80
2010,06,22,15,06,20.80
2010,06,22,15,07,20.80
2010,06,22,15,08,20.80
2010,06,22,15,09,20.80
2010,06,22,15,10,20.80
2010,06,22,15,11,20.80
2010,06,22,15,12,20.70
2010,06,22,15,13,20.60
2010,06,22,15,14,20.50
2010,06,22,15,15,20.30
2010,06,22,15,16,20.20
2010,06,22,15,17,20.10
2010,06,22,15,18,20.10
2010,06,22,15,19,20.10
2010,06,22,15,20,20.10
2010,06,22,15,21,20.10
2010,06,22,15,22,20.10
2010,06,22,15,23,20.10
2010,06,22,15,24,20.20
2010,06,22,15,25,20.20
2010,06,22,15,26,20.30
2010,06,22,15,27,20.30
2010,06,22,15,28,20.30
2010,06,22,15,29,20.30
2010,06,22,15,30,20.40
2010,06,22,15,31,20.40
2010,06,22,15,32,20.40
2010,06,22,15,33,20.40
2010,06,22,15,34,20.50
2010,06,22,15,35,20.50
2010,06,22,15,36,20.50
2010,06,22,15,37,20.50
2010,06,22,15,38,20.40
2010,06,22,15,39,20.40
2010,06,22,15,40,20.50
2010,06,22,15,41,20.50
2010,06,22,15,42,20.50
2010,06,22,15,43,20.60
2010,06,22,15,44,20.60
2010,06,22,15,45,20.70
2010,06,22,15,46,20.70
2010,06,22,15,47,20.80
2010,06,22,15,48,20.80
2010,06,22,15,49,20.80
2010,06,22,15,50,20.80
2010,06,22,15,51,20.90
2010,06,22,15,52,20.90
2010,06,22,15,53,21.00
2010,06,22,15,54,21.10
2010,06,22,15,55,21.10
2010,06,22,15,56,21.20
2010,06,22,15,57,21.20
2010,06,22,15,58,21.20
2010,06,22,15,59,21.20
2010,06,22,16,00,21.20
2010,06,22,16,01,21.10
2010,06,22,16,02,21.10
2010,06,22,16,03,21.00
2010,06,22,16,04,20.90
2010,06,22,16,05,20.80
2010,06,22,16,06,20.70
2010,06,22,16,07,20.60
2010,06,22,16,08,20.60
2010,06,22,16,09,20.50
2010,06,22,16,10,20.50
2010,06,22,16,11,20.40
2010,06,22,16,12,20.40
2010,06,22,16,13,20.40
2010,06,22,16,14,20.30
2010,06,22,16,15,20.30
2010,06,22,16,16,20.30
2010,06,22,16,17,20.30
2010,06,22,16,18,20.30
2010,06,22,16,19,20.20
2010,06,22,16,20,20.20
2010,06,22,16,21,20.20
2010,06,22,16,22,20.20
2010,06,22,16,23,20.20
2010,06,22,16,24,20.10
2010,06,22,16,25,20.10
2010,06,22,16,26,20.10
2010,06,22,16,27,20.10
2010,06,22,16,28,20.10
2010,06,22,16,29,20.10
2010,06,22,16,30,20.00
2010,06,22,16,31,19.90
2010,06,22,16,32,19.90
2010,06,22,16,33,19.80
2010,06,22,16,34,19.80
2010,06,22,16,35,19.90
2010,06,22,16,36,19.90
2010,06,22,16,37,20.00
2010,06,22,16,38,20.00
2010,06,22,16,39,20.10
2010,06,22,16,40,20.10
2010,06,22,16,41,20.10
2010,06,22,16,42,20.00
2010,06,22,16,43,20.00
2010,06,22,16,44,20.00
2010,06,22,16,45,20.00
2010,06,22,16,46,19.90
2010,06,22,16,47,19.90
2010,06,22,16,48,20.00
2010,06,22,16,49,20.00
2010,06,22,16,50,20.10
2010,06,22,16,51,20.10
2010,06,22,16,52,20.10
2010,06,22,16,53,20.10
2010,06,22,16,54,20.20
2010,06,22,16,55,20.20
2010,06,22,16,56,20.20
2010,06,22,16,57,20.20
2010,06,22,16,58,20.30
2010,06,22,16,59,20.30
2010,06,22,17,00,20.30
2010,06,22,17,01,20.30
2010,06,22,17,02,20.30
2010,06,22,17,03,20.20
2010,06,22,17,04,20.20
2010,06,22,17,05,20.30
2010,06,22,17,06,20.30
2010,06,22,17,07,20.30
2010,06,22,17,08,20.30
2010,06,22,17,09,20.30
2010,06,22,17,10,20.40
2010,06,22,17,11,20.40
2010,06,22,17,12,20.40
2010,06,22,17,13,20.40
2010,06,22,17,14,20.40
2010,06,22,17,15,20.40
2010,06,22,17,16,20.40
2010,06,22,17,17,20.40
2010,06,22,17,18,20.40
2010,06,22,17,19,20.40
2010,06,22,17,20,20.30
2010,06,22,17,21,20.30
2010,06,22,17,22,20.30
2010,06,22,17,23,20.20
2010,06,22,17,24,20.20
2010,06,22,17,25,20.10
2010,06,22,17,26,20.10
2010,06,22,17,27,20.00
2010,06,22,17,28,20.00
2010,06,22,17,29,19.90
2010,06,22,17,30,19.90
2010,06,22,17,31,19.80
2010,06,22,17,32,19.70
2010,06,22,17,33,19.60
2010,06,22,17,34,19.50
2010,06,22,17,35,19.50
2010,06,22,17,36,19.40
2010,06,22,17,37,19.30
2010,06,22,17,38,19.30
2010,06,22,17,39,19.30
2010,06,22,17,40,19.20
2010,06,22,17,41,19.20
2010,06,22,17,42,19.20
2010,06,22,17,43,19.20
2010,06,22,17,44,19.20
2010,06,22,17,45,19.20
2010,06,22,17,46,19.20
2010,06,22,17,47,19.20
2010,06,22,17,48,19.20
2010,06,22,17,49,19.20
2010,06,22,17,50,19.20
2010,06,22,17,51,19.10
2010,06,22,17,52,19.10
2010,06,22,17,53,19.10
2010,06,22,17,54,19.00
2010,06,22,17,55,19.00
2010,06,22,17,56,19.00
2010,06,22,17,57,19.00
2010,06,22,17,58,19.00
2010,06,22,17,59,19.00
2010,06,22,18,00,19.10
2010,06,22,18,01,19.10
2010,06,22,18,02,19.10
2010,06,22,18,03,19.20
2010,06,22,18,04,19.20
2010,06,22,18,05,19.20
2010,06,22,18,06,19.20
2010,06,22,18,07,19.10
2010,06,22,18,08,19.10
2010,06,22,18,09,19.10
2010,06,22,18,10,19.00
2010,06,22,18,11,19.00
2010,06,22,18,12,19.00
2010,06,22,18,13,19.10
2010,06,22,18,14,19.10
2010,06,22,18,15,19.10
2010,06,22,18,16,19.10
2010,06,22,18,17,19.20
2010,06,22,18,18,19.10
2010,06,22,18,19,19.10
2010,06,22,18,20,19.00
2010,06,22,18,21,19.00
2010,06,22,18,22,18.90
2010,06,22,18,23,18.90
2010,06,22,18,24,18.90
2010,06,22,18,25,18.90
2010,06,22,18,26,18.90
2010,06,22,18,27,18.90
2010,06,22,18,28,19.00
2010,06,22,18,29,19.00
2010,06,22,18,30,19.00
2010,06,22,18,31,19.00
2010,06,22,18,32,19.00
2010,06,22,18,33,19.00
2010,06,22,18,34,19.00
2010,06,22,18,35,18.90
2010,06,22,18,36,18.90
2010,06,22,18,37,18.90
2010,06,22,18,38,18.90
2010,06,22,18,39,18.90
2010,06,22,18,40,18.90
2010,06,22,18,41,18.90
2010,06,22,18,42,18.90
2010,06,22,18,43,19.00
2010,06,22,18,44,19.00
2010,06,22,18,45,19.10
2010,06,22,18,46,19.10
2010,06,22,18,47,19.10
2010,06,22,18,48,19.20
2010,06,22,18,49,19.20
2010,06,22,18,50,19.20
2010,06,22,18,51,19.20
2010,06,22,18,52,19.20
2010,06,22,18,53,19.30
2010,06,22,18,54,19.20
2010,06,22,18,55,19.30
2010,06,22,18,56,19.30
2010,06,22,18,57,19.30
2010,06,22,18,58,19.30
2010,06,22,18,59,19.30
2010,06,22,19,00,19.30
2010,06,22,19,01,19.40
2010,06,22,19,02,19.40
2010,06,22,19,03,19.40
2010,06,22,19,04,19.40
2010,06,22,19,05,19.40
2010,06,22,19,06,19.40
2010,06,22,19,07,19.40
2010,06,22,19,08,19.40
2010,06,22,19,09,19.40
2010,06,22,19,10,19.40
2010,06,22,19,11,19.40
2010,06,22,19,12,19.40
2010,06,22,19,13,19.30
2010,06,22,19,14,19.30
2010,06,22,19,15,19.30
2010,06,22,19,16,19.30
2010,06,22,19,17,19.20
2010,06,22,19,18,19.20
2010,06,22,19,19,19.20
2010,06,22,19,20,19.20
2010,06,22,19,21,19.10
2010,06,22,19,22,19.10
2010,06,22,19,23,19.10
2010,06,22,19,24,19.10
2010,06,22,19,25,19.10
2010,06,22,19,26,19.10
2010,06,22,19,27,19.10
2010,06,22,19,28,19.10
2010,06,22,19,29,19.10
2010,06,22,19,30,19.10
2010,06,22,19,31,19.10
2010,06,22,19,32,19.10
2010,06,22,19,33,19.00
2010,06,22,19,34,19.00
2010,06,22,19,35,19.00
2010,06,22,19,36,19.00
2010,06,22,19,37,18.90
2010,06,22,19,38,18.90
2010,06,22,19,39,18.90
2010,06,22,19,40,18.80
2010,06,22,19,41,18.80
2010,06,22,19,42,18.70
2010,06,22,19,43,18.70
2010,06,22,19,44,18.70
2010,06,22,19,45,18.70
2010,06,22,19,46,18.60
2010,06,22,19,47,18.60
2010,06,22,19,48,18.60
2010,06,22,19,49,18.60
2010,06,22,19,50,18.50
2010,06,22,19,51,18.50
2010,06,22,19,52,18.40
2010,06,22,19,53,18.40
2010,06,22,19,54,18.40
2010,06,22,19,55,18.30
2010,06,22,19,56,18.30
2010,06,22,19,57,18.30
2010,06,22,19,58,18.30
2010,06,22,19,59,18.30
2010,06,22,20,00,18.30
2010,06,22,20,01,18.30
2010,06,22,20,02,18.30
2010,06,22,20,03,18.30
2010,06,22,20,04,18.30
2010,06,22,20,05,18.30
2010,06,22,20,06,18.30
2010,06,22,20,07,18.30
2010,06,22,20,08,18.30
2010,06,22,20,09,18.30
2010,06,22,20,10,18.30
2010,06,22,20,11,18.30
2010,06,22,20,12,18.30
2010,06,22,20,13,18.20
2010,06,22,20,14,18.20
2010,06,22,20,15,18.20
2010,06,22,20,16,18.20
2010,06,22,20,17,18.20
2010,06,22,20,18,18.10
2010,06,22,20,19,18.10
2010,06,22,20,20,18.10
2010,06,22,20,21,18.10
2010,06,22,20,22,18.10
2010,06,22,20,23,18.10
2010,06,22,20,24,18.10
2010,06,22,20,25,18.10
2010,06,22,20,26,18.10
2010,06,22,20,27,18.00
2010,06,22,20,28,18.00
2010,06,22,20,29,18.00
2010,06,22,20,30,17.90
2010,06,22,20,31,17.90
2010,06,22,20,32,17.90
2010,06,22,20,33,17.90
2010,06,22,20,34,17.90
2010,06,22,20,35,17.80
2010,06,22,20,36,17.80
2010,06,22,20,37,17.80
2010,06,22,20,38,17.80
2010,06,22,20,39,17.70
2010,06,22,20,40,17.70
2010,06,22,20,41,17.70
2010,06,22,20,42,17.60
2010,06,22,20,43,17.60
2010,06,22,20,44,17.60
2010,06,22,20,45,17.60
2010,06,22,20,46,17.60
2010,06,22,20,47,17.50
2010,06,22,20,48,17.50
2010,06,22,20,49,17.50
2010,06,22,20,50,17.40
2010,06,22,20,51,17.40
2010,06,22,20,52,17.40
2010,06,22,20,53,17.40
2010,06,22,20,54,17.30
2010,06,22,20,55,17.30
2010,06,22,20,56,17.30
2010,06,22,20,57,17.30
2010,06,22,20,58,17.20
2010,06,22,20,59,17.20
2010,06,22,21,00,17.20
2010,06,22,21,01,17.10
2010,06,22,21,02,17.10
2010,06,22,21,03,17.00
2010,06,22,21,04,17.00
2010,06,22,21,05,16.90
2010,06,22,21,06,16.90
2010,06,22,21,07,16.90
2010,06,22,21,08,16.80
2010,06,22,21,09,16.80
2010,06,22,21,10,16.80
2010,06,22,21,11,16.70
2010,06,22,21,12,16.70
2010,06,22,21,13,16.70
2010,06,22,21,14,16.70
2010,06,22,21,15,16.60
2010,06,22,21,16,16.60
2010,06,22,21,17,16.60
2010,06,22,21,18,16.50
2010,06,22,21,19,16.50
2010,06,22,21,20,16.40
2010,06,22,21,21,16.40
2010,06,22,21,22,16.40
2010,06,22,21,23,16.40
2010,06,22,21,24,16.40
2010,06,22,21,25,16.30
2010,06,22,21,26,16.30
2010,06,22,21,27,16.30
2010,06,22,21,28,16.30
2010,06,22,21,29,16.30
2010,06,22,21,30,16.30
2010,06,22,21,31,16.20
2010,06,22,21,32,16.20
2010,06,22,21,33,16.20
2010,06,22,21,34,16.20
2010,06,22,21,35,16.20
2010,06,22,21,36,16.20
2010,06,22,21,37,16.10
2010,06,22,21,38,16.10
2010,06,22,21,39,16.10
2010,06,22,21,40,16.10
2010,06,22,21,41,16.10
2010,06,22,21,42,16.10
2010,06,22,21,43,16.10
2010,06,22,21,44,16.10
2010,06,22,21,45,16.10
2010,06,22,21,46,16.00
2010,06,22,21,47,16.00
2010,06,22,21,48,16.00
2010,06,22,21,49,16.00
2010,06,22,21,50,16.00
2010,06,22,21,51,16.00
2010,06,22,21,52,16.00
2010,06,22,21,53,15.90
2010,06,22,21,54,15.90
2010,06,22,21,55,15.90
2010,06,22,21,56,15.90
2010,06,22,21,57,15.90
2010,06,22,21,58,15.90
2010,06,22,21,59,15.90
2010,06,22,22,00,15.90
2010,06,22,22,01,15.90
2010,06,22,22,02,15.90
2010,06,22,22,03,15.90
2010,06,22,22,04,15.90
2010,06,22,22,05,15.90
2010,06,22,22,06,15.90
2010,06,22,22,07,15.90
2010,06,22,22,08,15.90
2010,06,22,22,09,15.90
2010,06,22,22,10,15.90
2010,06,22,22,11,15.90
2010,06,22,22,12,15.90
2010,06,22,22,13,15.90
2010,06,22,22,14,15.90
2010,06,22,22,15,15.90
2010,06,22,22,16,15.90
2010,06,22,22,17,15.90
2010,06,22,22,18,15.90
2010,06,22,22,19,15.90
2010,06,22,22,20,15.90
2010,06,22,22,21,15.90
2010,06,22,22,22,15.90
2010,06,22,22,23,15.90
2010,06,22,22,24,15.90
2010,06,22,22,25,15.90
2010,06,22,22,26,15.90
2010,06,22,22,27,15.90
2010,06,22,22,28,15.90
2010,06,22,22,29,15.90
2010,06,22,22,30,15.80
2010,06,22,22,31,15.80
2010,06,22,22,32,15.80
2010,06,22,22,33,15.80
2010,06,22,22,34,15.80
2010,06,22,22,35,15.80
2010,06,22,22,36,15.80
2010,06,22,22,37,15.80
2010,06,22,22,38,15.70
2010,06,22,22,39,15.70
2010,06,22,22,40,15.70
2010,06,22,22,41,15.70
2010,06,22,22,42,15.70
2010,06,22,22,43,15.70
2010,06,22,22,44,15.70
2010,06,22,22,45,15.60
2010,06,22,22,46,15.60
2010,06,22,22,47,15.60
2010,06,22,22,48,15.60
2010,06,22,22,49,15.50
2010,06,22,22,50,15.50
2010,06,22,22,51,15.50
2010,06,22,22,52,15.40
2010,06,22,22,53,15.40
2010,06,22,22,54,15.40
2010,06,22,22,55,15.40
2010,06,22,22,56,15.40
2010,06,22,22,57,15.30
2010,06,22,22,58,15.30
2010,06,22,22,59,15.30
2010,06,22,23,00,15.30
2010,06,22,23,01,15.30
2010,06,22,23,02,15.20
2010,06,22,23,03,15.20
2010,06,22,23,04,15.20
2010,06,22,23,05,15.20
2010,06,22,23,06,15.10
2010,06,22,23,07,15.10
2010,06,22,23,08,15.10
2010,06,22,23,09,15.00
2010,06,22,23,10,15.00
2010,06,22,23,11,14.90
2010,06,22,23,12,14.90
2010,06,22,23,13,14.90
2010,06,22,23,14,14.80
2010,06,22,23,15,14.80
2010,06,22,23,16,14.80
2010,06,22,23,17,14.80
2010,06,22,23,18,14.70
2010,06,22,23,19,14.70
2010,06,22,23,20,14.70
2010,06,22,23,21,14.70
2010,06,22,23,22,14.70
2010,06,22,23,23,14.70
2010,06,22,23,24,14.70
2010,06,22,23,25,14.70
2010,06,22,23,26,14.70
2010,06,22,23,27,14.70
2010,06,22,23,28,14.70
2010,06,22,23,29,14.70
2010,06,22,23,30,14.70
2010,06,22,23,31,14.70
2010,06,22,23,32,14.70
2010,06,22,23,33,14.70
2010,06,22,23,34,14.70
2010,06,22,23,35,14.70
2010,06,22,23,36,14.70
2010,06,22,23,37,14.70
2010,06,22,23,38,14.70
2010,06,22,23,39,14.70
2010,06,22,23,40,14.70
2010,06,22,23,41,14.70
2010,06,22,23,42,14.80
2010,06,22,23,43,14.80
2010,06,22,23,44,14.80
2010,06,22,23,45,14.80
2010,06,22,23,46,14.80
2010,06,22,23,47,14.80
2010,06,22,23,48,14.80
2010,06,22,23,49,14.80
2010,06,22,23,50,14.90
2010,06,22,23,51,14.90
2010,06,22,23,52,14.90
2010,06,22,23,53,14.90
2010,06,22,23,54,14.90
2010,06,22,23,55,14.90
2010,06,22,23,56,14.90
2010,06,22,23,57,15.00
2010,06,22,23,58,15.00
2010,06,22,23,59,15.00
